Tracking 31027 objects as of 19-Jul-2025
HD Live streaming from Space Station
objects crossing your sky now

CZ-2 DEB

Track CZ-2 DEB now!
10-day predictions


NORAD ID: 38661
Int'l Code: 2012-029C
Perigee: 1,099.4 km
Apogee: 1,286.1 km
Inclination: 100.1 °
Period: 109.1 minutes
Semi major axis: 7563 km
RCS: 0.0137 m2 (small)
Launch date: May 29, 2012
Source: People's Republic of China (PRC)
Launch site: Taiyaun Space Center, China (TSC)

Note: This is SATELLITE DEBRIS
Your satellite tracking list
COSMOS 2251 DEB
Track 1 satellite(s)




NASA's NSSDC Master Catalog

Two Line Element Set (TLE):
1 38661U 12029C   25199.39080183  .00000056  00000-0  23626-3 0  9999
2 38661 100.1059 261.0477 0123421 356.4568   3.5663 13.19772388629525
Source of the keplerian elements: AFSPC